Regional Weather Roundup
Issued by NWS Northern Indiana

Home | Current Version | Previous Version | Graphics & Text | Print | Product List | Glossary On
Versions: 1 2 3 4 5 6 7 8 9 10 11 12 13 14 15 16 17 18 19 20 21 22 23 24 25 26 27 28 29 30 31 32 33 34 35 36 37 38 39 40 41 42 43 44 45 46 47 48 49 50
000
ASUS43 KIWX 281310
RWRIWX

KIWX WEATHER ROUNDUP
NATIONAL WEATHER SERVICE NORTHERN INDIANA
800 AM EST SAT FEB 28 2015

NOTE: "FAIR" INDICATES FEW OR NO CLOUDS BELOW 12,000 FEET WITH NO
SIGNIFICANT WEATHER AND/OR OBSTRUCTIONS TO VISIBILITY.

* THESE STATIONS ARE NOT UNDER NWS QUALITY CONTROL. THEY ALSO MAY NOT
  REPORT WEATHER SUCH AS PRECIPITATION OR FOG.

INZ001>027-281400-
NORTHERN INDIANA

CITY           SKY/WX    TMP DP  RH WIND       PRES   REMARKS
GARY*          PTCLDY    -8 -15  71 CALM      30.73R
VALPARAISO     PTCLDY    -8 -12  83 CALM      30.72R
MICHIGAN CITY* PTCLDY    -9 -17  70 CALM      30.73R
LAPORTE*       PTCLDY    -9 -15  77 CALM      30.72R
KNOX*            N/A     -6 -20  49 CALM      30.72S
SOUTH BEND     PTCLDY    -6 -12  75 CALM      30.71R
ELKHART*       CLEAR     -6 -11  77 CALM      30.72
GOSHEN         PTCLDY    -7 -12  79 CALM      30.71R
MONTICELLO*    MOCLDY     3  -2  79 CALM      30.72R
LOGANSPORT*    PTCLDY     0  -4  85 CALM      30.73R
ROCHESTER*     PTCLDY     1  -4  78 CALM      30.72S
WARSAW*        PTCLDY    -4  -8  84 CALM      30.71S
ANGOLA*        CLEAR    -11 -17  77 CALM      30.70R
FORT WAYNE     MOCLDY     2  -2  83 CALM      30.73R
HUNTINGTON*    PTCLDY     0  -6  75 CALM      30.72R
PERU/GRISSOM   CLOUDY     6  -1  74 E5        30.70R WCI  -3
MARION*        MOCLDY     5   0  78 CALM      30.72R

$$
INZ028>050-281400-
CENTRAL INDIANA

CITY           SKY/WX    TMP DP  RH WIND       PRES   REMARKS
LAFAYETTE      CLOUDY     7  -1  70 E5        30.73R WCI  -2
KOKOMO*        PTCLDY     5   0  78 E3        30.72R
MUNCIE*        CLOUDY     5   0  79 E5        30.70R WCI  -4
INDIANAPOLIS   CLOUDY    12   2  64 E5        30.69R WCI   4

$$
MIZ043>046-050>051-056>058-064>065-071>073-077>080-281400-
SOUTHWEST LOWER MICHIGAN

CITY           SKY/WX    TMP DP  RH WIND       PRES   REMARKS
BATTLE CREEK   MOCLDY    -7 -12  79 CALM      30.69R
BENTON HARBOR  PTCLDY    -8 -10  91 CALM      30.72R
COLDWATER*     MOCLDY   -13 -19  75 CALM      30.69S
HILLSDALE*     PTCLDY    -5 -10  79 CALM      30.67R
HOLLAND        CLEAR     -1  -5  82 SE3       30.70R
GRAND RAPIDS   PTCLDY    -1  -6  79 S8        30.69R WCI -15
KALAMAZOO      MOCLDY    -3  -7  82 S5        30.70R WCI -13
STURGIS*       MOCLDY    -2  -6  84 CALM      30.69R
THREE RIVERS*  FAIR     -11 -16  77 CALM      30.71R

$$
OHZ001>008-015>018-024>025-281400-
NORTHWEST OHIO

CITY           SKY/WX    TMP DP  RH WIND       PRES   REMARKS
WAUSEON*       FAIR      -2  -8  78 CALM      30.73R
DEFIANCE       PTCLDY    -6 -12  75 CALM      30.75R
FINDLAY        PTCLDY    -2  -8  76 SE3       30.73R
TOLEDO EXPRESS MOCLDY    -7 -10  87 CALM      30.74R
TOLEDO METCALF PTCLDY    -1  -7  75 CALM      30.76R
LIMA           PTCLDY     4  -5  66 SE3       30.71R

$$
AND FOR LAKE MICHIGAN COASTAL AND OPEN LAKE BUOY OBSERVATIONS

STATION/POSITION TEMP    WIND        PRES    VSBY  WAVE
                 AIR SEA DIR/SP/G                  HT/PER
                 (F)     (DEG/KT/KT) (MB)    (MI)  (FT/S)
CALUMET HARBOR     2     210/  4/  5 1038.8R
MICHIGAN CITY      1     140/  6/  7   N/A
SAINT JOSEPH       2     130/  5/  9 1040.3F

$$
&&


USA.gov is the U.S. government's official web portal to all federal, state and local government web resources and services.